Yoho Park, British Columbia

7:13 AM MDT on June 27, 2017 (GMT -0600)
Yoho Park

Weather History for CWYL - October, 2012

Change the Weather History Date:

Tuesday, October 30, 2012

  Actual Average Record
Temperature  
Mean Temperature 32 °F -  
Max Temperature 33 °F - - ()
Min Temperature 31 °F - - ()
Degree Days  
Heating Degree Days 33    
Moisture  
Dew Point 32 °F    
Average Humidity 97    
Maximum Humidity 100    
Minimum Humidity 92    
Precipitation  
Precipitation 0.00 in - - ()
Sea Level Pressure  
Sea Level Pressure 29.94 in    
Wind  
Wind Speed 11 mph ()    
Max Wind Speed 16 mph    
Max Gust Speed -    
T = Trace of Precipitation, MM = Missing Value Source: Averaged Metar Reports

Daily Weather History Graph

Daily Weather History Graph

Search for Another Location

Airport or City:

Trip Planner

Search our weather history database for the weather conditions in past years. The results will help you decide how hot, cold, wet, or windy it might be!

Date:

Astronomy

Oct. 30, 2012 Rise Set
Actual Time 8:36 AM MDT 6:20 PM MDT
Civil Twilight 8:01 AM MDT 6:55 PM MDT
Nautical Twilight 7:21 AM MDT 7:35 PM MDT
Astronomical Twilight 6:43 AM MDT 8:13 PM MDT
Moon 6:42 PM MDT (10/30) 9:36 AM MDT (10/30)
Length of Visible Light 10h 54m
Length of Day
9h 44m
Full, 99% of the Moon is Illuminated
Oct 30
Full
Nov 6
Last Quarter
Nov 13
New
Nov 20
First Quarter
Nov 28
Full

Hourly Weather History & Observations

Time (MDT) Temp. Windchill Dew Point Humidity Pressure Visibility Wind Dir Wind Speed Gust Speed Precip Events Conditions
12:00 AM 33 °F - 32 °F 94% 29.94 in - West 16.1 mph - -  
12:00 AM 31.5 °F 20.5 °F 32.0 °F 100% 29.94 in - West 16.1 mph - N/A   Unknown
1:00 AM 31.5 °F 20.5 °F 32.0 °F 100% 29.95 in - West 16.1 mph - N/A   Unknown
2:00 AM 31.6 °F 22.1 °F 31.8 °F 100% 29.94 in - WSW 12.7 mph - N/A   Unknown
3:00 AM 31.6 °F 22.6 °F 31.8 °F 100% 29.94 in - WSW 11.5 mph - N/A   Unknown
4:00 AM 31.3 °F 21.6 °F 31.8 °F 100% 29.94 in - West 12.7 mph - N/A   Unknown
5:00 AM 31.3 °F 21.6 °F 31.8 °F 100% 29.93 in - West 12.7 mph - N/A   Unknown
6:00 AM 32 °F - 32 °F 99% 29.91 in - West 12.7 mph - -  
6:00 AM 31.6 °F 22.1 °F 31.8 °F 100% 29.91 in - West 12.7 mph - N/A   Unknown
7:00 AM 31.6 °F 23.1 °F 31.8 °F 100% 29.92 in - West 10.4 mph - N/A   Unknown
8:00 AM 31.6 °F 23.1 °F 31.8 °F 100% 29.89 in - West 10.4 mph - N/A   Unknown
9:00 AM 31.6 °F 22.6 °F 31.8 °F 100% 29.90 in - West 11.5 mph - N/A   Unknown
10:00 AM 31.5 °F 23.5 °F 32.0 °F 100% 29.90 in - West 9.2 mph - N/A   Unknown
11:00 AM 31.3 °F 22.7 °F 31.8 °F 100% 29.89 in - West 10.4 mph - N/A   Unknown
12:00 PM 33 °F - 32 °F 94% 29.91 in - West 12.7 mph - -  
12:00 PM 31.5 °F 21.8 °F 32.0 °F 100% 29.91 in - West 12.7 mph - N/A   Unknown
1:00 PM 31.5 °F 22.3 °F 32.0 °F 100% 29.91 in - West 11.5 mph - N/A   Unknown
2:00 PM 33.3 °F 24.1 °F 31.3 °F 92% 29.90 in - West 12.7 mph - N/A   Unknown
3:00 PM 33.4 °F 24.8 °F 32.9 °F 98% 29.91 in - West 11.5 mph - N/A   Unknown
4:00 PM 33.6 °F 24.1 °F 33.1 °F 98% 29.93 in - West 13.8 mph - N/A   Unknown
5:00 PM 33.3 °F 25.7 °F 31.3 °F 92% 29.96 in - West 9.2 mph - N/A   Unknown
6:00 PM 33 °F - 33 °F 98% 29.96 in - West 11.5 mph - -  
6:00 PM 33.3 °F 24.6 °F 31.3 °F 92% 29.96 in - West 11.5 mph - N/A   Unknown
7:00 PM 32.9 °F 25.3 °F 31.6 °F 95% 29.97 in - West 9.2 mph - N/A   Unknown
8:00 PM 33.3 °F 25.7 °F 31.3 °F 92% 29.99 in - West 9.2 mph - N/A   Unknown
9:00 PM 32.9 °F 24.7 °F 31.6 °F 95% 30.01 in - West 10.4 mph - N/A   Unknown
10:00 PM 32.9 °F 25.3 °F 31.6 °F 95% 30.02 in - West 9.2 mph - N/A   Unknown
11:00 PM 33.1 °F 24.9 °F 31.5 °F 94% 30.02 in - West 10.4 mph - N/A   Unknown